CST,Max TemperatureF,Mean TemperatureF,Min TemperatureF,Max Dew PointF,MeanDew PointF,Min DewpointF,Max Humidity, Mean Humidity, Min Humidity, Max Sea Level PressureIn, Mean Sea Level PressureIn, Min Sea Level PressureIn, Max VisibilityMiles, Mean VisibilityMiles, Min VisibilityMiles, Max Wind SpeedMPH, Mean Wind SpeedMPH, Max Gust SpeedMPH,PrecipitationIn, CloudCover, Events, WindDirDegrees
2013-2-1,17,8,0,14,1,-6,91,70,61,30.37,30.28,30.18,10,9,1,15,10,23,0.00,2,Snow,324
2013-2-2,25,17,9,22,13,3,93,81,67,30.17,30.06,30.01,10,7,2,13,6,21,0.00,7,Snow,328
2013-2-3,23,16,10,20,13,5,92,80,64,30.07,30.02,29.96,10,6,1,15,4,21,0.00,7,Snow,330
2013-2-4,28,21,14,24,20,12,92,85,77,30.02,29.90,29.84,10,10,1,12,5,,0.00,6,Snow,338
2013-2-5,32,20,8,28,21,6,96,85,71,30.09,29.91,29.80,10,7,2,12,3,20,0.00,6,Snow,330
2013-2-6,39,27,15,30,24,14,100,77,63,30.22,30.15,30.09,10,9,5,10,4,,0.00,3,,340
2013-2-7,36,34,32,35,32,28,99,94,85,30.10,29.97,29.84,7,2,1,10,6,16,0.33,7,Rain-Snow,339
2013-2-8,32,28,23,32,23,20,98,87,80,30.39,30.25,29.94,10,9,2,14,8,22,0.01,7,Rain-Snow,325
2013-2-9,34,29,24,28,24,21,92,81,72,30.39,30.27,30.07,10,10,7,14,4,18,0.00,5,,345
2013-2-10,48,40,32,46,37,27,95,87,69,30.07,29.75,29.50,10,8,2,21,11,33,0.10,7,Rain,339
2013-2-11,44,36,29,33,25,21,75,69,62,30.06,29.81,29.55,10,10,10,25,18,36,0.00,8,,321
2013-2-12,29,24,18,22,21,18,96,80,71,30.11,30.04,29.93,10,9,4,,,,0.00,6,,-1
2013-2-13,43,30,18,32,26,17,98,84,58,29.91,29.79,29.72,10,7,2,7,3,,0.00,2,,263
2013-2-14,39,36,32,32,29,24,89,76,62,29.98,29.80,29.66,10,10,7,17,6,29,0.00,7,Snow,250
2013-2-15,32,26,20,29,17,8,89,63,44,30.18,30.13,29.98,10,10,5,13,6,20,0.00,5,Snow,315
2013-2-16,22,17,11,10,6,3,73,62,49,30.19,30.16,30.11,10,10,10,14,6,20,0.00,2,,323
2013-2-17,30,17,4,18,7,1,88,63,33,30.21,30.14,30.00,10,10,10,9,2,,0.00,0,,154
2013-2-18,52,40,27,45,32,18,94,73,56,29.98,29.68,29.43,10,9,2,25,12,36,0.21,4,Rain-Snow,186
2013-2-19,26,18,10,23,9,2,86,74,67,30.20,29.92,29.63,10,8,2,23,17,34,0.21,7,Snow,279
2013-2-20,23,14,6,14,7,0,90,70,60,30.36,30.31,30.21,10,10,10,14,8,20,0.00,0,,314
2013-2-21,32,24,15,24,19,12,93,77,70,30.36,30.22,29.96,10,9,1,21,5,28,0.06,8,Snow,66
2013-2-22,34,28,23,32,25,22,99,88,74,29.94,29.86,29.81,10,6,0,15,10,24,0.03,8,Rain-Snow-Thunderstorm,190
2013-2-23,27,24,19,23,19,16,89,78,67,29.98,29.94,29.92,10,10,5,12,7,18,0.00,6,Snow,257
2013-2-24,34,21,8,21,16,6,94,77,55,30.14,30.09,29.98,10,8,3,5,1,,0.00,0,,262
2013-2-25,42,28,15,29,24,14,96,76,57,30.16,30.08,29.92,10,9,5,13,3,17,0.00,0,,91
2013-2-26,34,33,32,32,29,24,99,86,66,29.92,29.61,29.49,10,6,1,23,15,33,0.18,6,Rain-Snow,47
2013-2-27,33,32,31,32,30,29,100,93,87,29.71,29.60,29.51,10,7,1,9,6,,0.00,8,Rain-Snow,315
2013-2-28,36,32,29,31,29,21,96,84,69,30.06,29.91,29.71,10,9,2,14,7,18,0.00,8,Snow,346